| time (UTC) | temp F | wind direction | speed MPH | gust MPH | rain 1hr in | rain 24hr in | rain mn in | humidity % | barometer mb |
| 20260505124909 | 42 | 5 | 0.0 | 0.0 | 0.00 | 0.00 | 0.00 | 80 | 1014.6 |
| 20260505124406 | 42 | 355 | 0.0 | 0.0 | 0.00 | 0.00 | 0.00 | 79 | 1014.6 |
| 20260505123902 | 42 | 355 | 0.0 | 0.0 | 0.00 | 0.00 | 0.00 | 78 | 1014.6 |
| 20260505123359 | 43 | 350 | 1.0 | 1.0 | 0.00 | 0.00 | 0.00 | 78 | 1014.6 |
| 20260505122855 | 43 | 349 | 0.0 | 0.0 | 0.00 | 0.00 | 0.00 | 77 | 1014.4 |
| 20260505122352 | 43 | 11 | 0.0 | 1.0 | 0.00 | 0.00 | 0.00 | 77 | 1014.5 |
| 20260505121849 | 43 | 14 | 0.0 | 0.0 | 0.00 | 0.00 | 0.00 | 76 | 1014.1 |
| 20260505121346 | 43 | 20 | 0.0 | 0.0 | 0.00 | 0.00 | 0.00 | 76 | 1014.0 |
| 20260505120842 | 43 | 6 | 1.0 | 2.0 | 0.00 | 0.00 | 0.00 | 75 | 1014.0 |
| 20260505120338 | 44 | 338 | 0.0 | 0.0 | 0.00 | 0.00 | 0.00 | 75 | 1013.6 |
| 20260505115837 | 44 | 337 | 0.0 | 0.0 | 0.00 | 0.00 | 0.00 | 74 | 1013.5 |
| 20260505115334 | 44 | 337 | 0.0 | 1.0 | 0.00 | 0.00 | 0.00 | 72 | 1013.5 |
| 20260505114832 | 44 | 337 | 0.0 | 0.0 | 0.00 | 0.00 | 0.00 | 73 | 1013.4 |
| 20260505114328 | 44 | 90 | 1.0 | 1.0 | 0.00 | 0.00 | 0.00 | 71 | 1013.3 |
| 20260505113825 | 44 | 336 | 1.0 | 1.0 | 0.00 | 0.00 | 0.00 | 71 | 1013.3 |
| 20260505113321 | 44 | 334 | 1.0 | 1.0 | 0.00 | 0.00 | 0.00 | 72 | 1013.4 |
| 20260505112817 | 44 | 41 | 2.0 | 2.0 | 0.00 | 0.00 | 0.00 | 71 | 1013.0 |
| 20260505112315 | 45 | 345 | 0.0 | 0.0 | 0.00 | 0.00 | 0.00 | 72 | 1013.0 |
| 20260505111810 | 45 | 321 | 0.0 | 0.0 | 0.00 | 0.00 | 0.00 | 73 | 1012.9 |
| 20260505111306 | 45 | 21 | 1.0 | 1.0 | 0.00 | 0.00 | 0.00 | 73 | 1013.3 |
| 20260505110802 | 45 | 8 | 1.0 | 1.0 | 0.00 | 0.00 | 0.00 | 75 | 1012.9 |
| 20260505110300 | 45 | 352 | 1.0 | 2.0 | 0.00 | 0.00 | 0.00 | 76 | 1013.3 |
| 20260505101734 | 45 | 336 | 0.0 | 0.0 | 0.00 | 0.00 | 0.00 | 79 | 1013.1 |
| 20260505101230 | 45 | 311 | 0.0 | 0.0 | 0.00 | 0.00 | 0.00 | 79 | 1013.3 |
| 20260505100726 | 45 | 337 | 1.0 | 1.0 | 0.00 | 0.00 | 0.00 | 81 | 1013.5 |
| 20260505100223 | 45 | 332 | 1.0 | 2.0 | 0.00 | 0.00 | 0.00 | 82 | 1013.6 |
| 20260505095724 | 45 | 322 | 0.0 | 0.0 | 0.00 | 0.00 | 0.00 | 83 | 1013.1 |
| 20260505095222 | 45 | 322 | 0.0 | 0.0 | 0.00 | 0.00 | 0.00 | 83 | 1013.5 |
| 20260505094717 | 45 | 317 | 0.0 | 1.0 | 0.00 | 0.00 | 0.00 | 83 | 1013.5 |
| 20260505094214 | 45 | 318 | 0.0 | 0.0 | 0.00 | 0.00 | 0.00 | 83 | 1013.5 |
| 20260505093710 | 45 | 318 | 0.0 | 0.0 | 0.00 | 0.00 | 0.00 | 82 | 1013.5 |
| 20260505093208 | 46 | 318 | 0.0 | 0.0 | 0.00 | 0.00 | 0.00 | 82 | 1013.6 |
| 20260505092704 | 46 | 318 | 0.0 | 0.0 | 0.00 | 0.00 | 0.00 | 80 | 1013.4 |
| 20260505092204 | 46 | 318 | 0.0 | 0.0 | 0.00 | 0.00 | 0.00 | 81 | 1013.4 |
| 20260505091700 | 46 | 318 | 0.0 | 0.0 | 0.00 | 0.00 | 0.00 | 81 | 1013.3 |
| 20260505091158 | 46 | 318 | 0.0 | 0.0 | 0.00 | 0.00 | 0.00 | 81 | 1013.6 |
| 20260505090655 | 47 | 318 | 0.0 | 0.0 | 0.00 | 0.00 | 0.00 | 80 | 1013.7 |
| 20260505090154 | 47 | 318 | 0.0 | 0.0 | 0.00 | 0.00 | 0.00 | 81 | 1013.5 |
| 20260505085650 | 47 | 318 | 0.0 | 0.0 | 0.00 | 0.00 | 0.00 | 81 | 1013.6 |
| 20260505085149 | 47 | 318 | 0.0 | 1.0 | 0.00 | 0.00 | 0.00 | 80 | 1013.5 |
| 20260505084646 | 47 | 318 | 0.0 | 0.0 | 0.00 | 0.00 | 0.00 | 79 | 1013.7 |
| 20260505084144 | 47 | 318 | 0.0 | 0.0 | 0.00 | 0.00 | 0.00 | 80 | 1014.0 |
| 20260505083642 | 47 | 318 | 0.0 | 0.0 | 0.00 | 0.00 | 0.00 | 80 | 1014.0 |
| 20260505083138 | 47 | 318 | 0.0 | 0.0 | 0.00 | 0.00 | 0.00 | 80 | 1014.0 |
| 20260505082634 | 47 | 318 | 0.0 | 0.0 | 0.00 | 0.00 | 0.00 | 81 | 1014.1 |
| 20260505082131 | 47 | 318 | 0.0 | 0.0 | 0.00 | 0.00 | 0.00 | 80 | 1014.1 |
| 20260505081627 | 47 | 318 | 0.0 | 0.0 | 0.00 | 0.00 | 0.00 | 80 | 1014.2 |
| 20260505081125 | 47 | 318 | 0.0 | 0.0 | 0.00 | 0.00 | 0.00 | 79 | 1014.1 |
| 20260505080621 | 47 | 318 | 0.0 | 0.0 | 0.00 | 0.00 | 0.00 | 80 | 1014.1 |
| 20260505080117 | 47 | 318 | 0.0 | 0.0 | 0.00 | 0.00 | 0.00 | 78 | 1014.2 |
| 20260505075614 | 47 | 318 | 1.0 | 1.0 | 0.00 | 0.00 | 0.00 | 79 | 1014.1 |
| 20260505075110 | 47 | 318 | 0.0 | 0.0 | 0.00 | 0.00 | 0.00 | 80 | 1014.2 |
| 20260505074607 | 47 | 318 | 1.0 | 1.0 | 0.00 | 0.00 | 0.00 | 80 | 1014.2 |
| 20260505074104 | 47 | 321 | 0.0 | 0.0 | 0.00 | 0.00 | 0.00 | 82 | 1014.2 |
| 20260505073602 | 47 | 321 | 0.0 | 0.0 | 0.00 | 0.00 | 0.00 | 81 | 1014.2 |
| 20260505073100 | 47 | 321 | 0.0 | 0.0 | 0.00 | 0.00 | 0.00 | 81 | 1014.5 |
| 20260505072555 | 47 | 321 | 0.0 | 1.0 | 0.00 | 0.00 | 0.00 | 83 | 1014.4 |
| 20260505072052 | 46 | 321 | 0.0 | 1.0 | 0.00 | 0.00 | 0.00 | 84 | 1014.2 |
| 20260505071547 | 46 | 321 | 0.0 | 0.0 | 0.00 | 0.00 | 0.00 | 86 | 1014.5 |
| 20260505071046 | 46 | 321 | 0.0 | 0.0 | 0.00 | 0.00 | 0.00 | 88 | 1014.5 |
| 20260505070543 | 46 | 320 | 0.0 | 1.0 | 0.00 | 0.00 | 0.00 | 88 | 1014.4 |
| 20260505070039 | 46 | 321 | 0.0 | 1.0 | 0.00 | 0.00 | 0.00 | 88 | 1014.4 |
| 20260505065535 | 46 | 321 | 0.0 | 0.0 | 0.00 | 0.00 | 0.00 | 88 | 1014.4 |
| 20260505065032 | 46 | 321 | 0.0 | 1.0 | 0.00 | 0.00 | 0.00 | 87 | 1014.1 |
| 20260505064528 | 47 | 321 | 0.0 | 0.0 | 0.00 | 0.00 | 0.00 | 86 | 1014.2 |
| 20260505064027 | 47 | 321 | 0.0 | 1.0 | 0.00 | 0.00 | 0.00 | 84 | 1014.2 |
| 20260505063524 | 47 | 321 | 0.0 | 0.0 | 0.00 | 0.00 | 0.00 | 83 | 1014.4 |
| 20260505063020 | 47 | 321 | 0.0 | 0.0 | 0.00 | 0.00 | 0.00 | 80 | 1014.6 |
| 20260505062517 | 48 | 321 | 0.0 | 1.0 | 0.00 | 0.00 | 0.00 | 79 | 1014.5 |
| 20260505062014 | 47 | 321 | 0.0 | 0.0 | 0.00 | 0.00 | 0.00 | 76 | 1014.5 |
| 20260505061511 | 48 | 321 | 0.0 | 0.0 | 0.00 | 0.00 | 0.00 | 81 | 1014.4 |
| 20260505061009 | 48 | 321 | 0.0 | 0.0 | 0.00 | 0.00 | 0.00 | 78 | 1014.5 |
| 20260505060506 | 49 | 321 | 0.0 | 0.0 | 0.00 | 0.00 | 0.00 | 76 | 1014.5 |
| 20260505060002 | 49 | 321 | 0.0 | 0.0 | 0.00 | 0.00 | 0.00 | 71 | 1014.4 |
| 20260505055458 | 49 | 313 | 0.0 | 0.0 | 0.00 | 0.00 | 0.00 | 70 | 1014.7 |
| 20260505054955 | 50 | 313 | 0.0 | 0.0 | 0.00 | 0.00 | 0.00 | 68 | 1014.6 |
| 20260505054452 | 50 | 309 | 0.0 | 0.0 | 0.00 | 0.00 | 0.00 | 66 | 1014.7 |
| 20260505053950 | 50 | 308 | 0.0 | 1.0 | 0.00 | 0.00 | 0.00 | 65 | 1014.5 |
| 20260505053447 | 50 | 308 | 1.0 | 1.0 | 0.00 | 0.00 | 0.00 | 64 | 1014.5 |
| 20260505052944 | 50 | 288 | 2.0 | 3.0 | 0.00 | 0.00 | 0.00 | 64 | 1014.5 |
| 20260505052441 | 50 | 321 | 2.0 | 2.0 | 0.00 | 0.00 | 0.00 | 64 | 1014.5 |
| 20260505051938 | 50 | 302 | 2.0 | 2.0 | 0.00 | 0.00 | 0.00 | 64 | 1014.6 |
| 20260505051435 | 50 | 332 | 1.0 | 1.0 | 0.00 | 0.00 | 0.00 | 65 | 1014.6 |
| 20260505050933 | 50 | 336 | 4.0 | 6.0 | 0.00 | 0.00 | 0.00 | 63 | 1014.6 |
| 20260505050431 | 50 | 348 | 0.0 | 0.0 | 0.00 | 0.00 | 0.00 | 64 | 1014.5 |
| 20260505041359 | 50 | 343 | 0.0 | 0.0 | 0.00 | 0.00 | 0.00 | 64 | 1014.1 |
| 20260505040856 | 50 | 343 | 0.0 | 1.0 | 0.00 | 0.00 | 0.00 | 63 | 1013.9 |
| 20260505040353 | 50 | 343 | 0.0 | 0.0 | 0.00 | 0.00 | 0.00 | 63 | 1014.0 |
| 20260505035850 | 50 | 343 | 0.0 | 0.0 | 0.00 | 0.00 | 0.00 | 63 | 1014.0 |
| 20260505035345 | 50 | 338 | 0.0 | 0.0 | 0.00 | 0.00 | 0.00 | 63 | 1014.0 |
| 20260505034843 | 50 | 354 | 0.0 | 0.0 | 0.00 | 0.00 | 0.00 | 63 | 1014.0 |
| 20260505034339 | 50 | 359 | 1.0 | 1.0 | 0.00 | 0.00 | 0.00 | 63 | 1013.9 |
| 20260505033837 | 50 | 331 | 1.0 | 1.0 | 0.00 | 0.00 | 0.00 | 64 | 1013.9 |
| 20260505033334 | 50 | 312 | 0.0 | 0.0 | 0.00 | 0.00 | 0.00 | 61 | 1013.7 |
| 20260505032832 | 50 | 333 | 1.0 | 1.0 | 0.00 | 0.00 | 0.00 | 63 | 1013.7 |
| 20260505032328 | 50 | 340 | 0.0 | 0.0 | 0.00 | 0.00 | 0.00 | 62 | 1013.5 |
| 20260505031825 | 50 | 314 | 0.0 | 0.0 | 0.00 | 0.00 | 0.00 | 62 | 1013.5 |
| 20260505031322 | 50 | 310 | 0.0 | 0.0 | 0.00 | 0.00 | 0.00 | 60 | 1013.4 |
| 20260505030819 | 50 | 312 | 1.0 | 1.0 | 0.00 | 0.00 | 0.00 | 62 | 1013.5 |
| 20260505030315 | 50 | 311 | 1.0 | 1.0 | 0.00 | 0.00 | 0.00 | 61 | 1013.3 |
| 20260505025810 | 50 | 308 | 0.0 | 1.0 | 0.00 | 0.00 | 0.00 | 62 | 1013.0 |
| 20260505025309 | 51 | 308 | 1.0 | 1.0 | 0.00 | 0.00 | 0.00 | 62 | 1012.9 |
| 20260505024807 | 51 | 309 | 0.0 | 1.0 | 0.00 | 0.00 | 0.00 | 61 | 1013.1 |
| 20260505024304 | 51 | 306 | 2.0 | 2.0 | 0.00 | 0.00 | 0.00 | 59 | 1013.3 |
| 20260505023801 | 52 | 340 | 2.0 | 3.0 | 0.00 | 0.00 | 0.00 | 57 | 1013.3 |
| 20260505023258 | 52 | 303 | 4.0 | 6.0 | 0.00 | 0.00 | 0.00 | 57 | 1013.3 |
| 20260505022755 | 52 | 323 | 2.0 | 3.0 | 0.00 | 0.00 | 0.00 | 58 | 1013.3 |
| 20260505022252 | 52 | 291 | 3.0 | 3.0 | 0.00 | 0.00 | 0.00 | 57 | 1013.3 |
| 20260505021749 | 53 | 356 | 1.0 | 1.0 | 0.00 | 0.00 | 0.00 | 55 | 1013.4 |
| 20260505021246 | 53 | 333 | 6.0 | 8.0 | 0.00 | 0.00 | 0.00 | 54 | 1012.9 |
| 20260505020741 | 53 | 323 | 1.0 | 2.0 | 0.00 | 0.00 | 0.00 | 54 | 1013.3 |
| 20260505020237 | 53 | 341 | 1.0 | 2.0 | 0.00 | 0.00 | 0.00 | 54 | 1013.0 |
| 20260505015734 | 52 | 318 | 2.0 | 2.0 | 0.00 | 0.00 | 0.00 | 56 | 1013.4 |
| 20260505015231 | 53 | 323 | 2.0 | 3.0 | 0.00 | 0.00 | 0.00 | 57 | 1013.5 |
| 20260505014728 | 53 | 319 | 2.0 | 3.0 | 0.00 | 0.00 | 0.00 | 55 | 1013.1 |
| 20260505014226 | 52 | 332 | 4.0 | 6.0 | 0.00 | 0.00 | 0.00 | 55 | 1012.9 |
| 20260505013722 | 51 | 328 | 6.0 | 8.0 | 0.00 | 0.00 | 0.00 | 58 | 1012.7 |
| 20260505013219 | 51 | 304 | 2.0 | 3.0 | 0.00 | 0.00 | 0.00 | 61 | 1012.7 |
| 20260505012718 | 51 | 283 | 5.0 | 7.0 | 0.00 | 0.00 | 0.00 | 62 | 1012.5 |
| 20260505012215 | 51 | 308 | 5.0 | 8.0 | 0.00 | 0.00 | 0.00 | 64 | 1012.9 |
| 20260505011710 | 52 | 309 | 4.0 | 6.0 | 0.00 | 0.00 | 0.00 | 62 | 1013.0 |
| 20260505011208 | 54 | 293 | 6.0 | 9.0 | 0.00 | 0.00 | 0.00 | 55 | 1013.0 |
| 20260505010703 | 55 | 313 | 8.0 | 10.0 | 0.00 | 0.00 | 0.00 | 49 | 1012.5 |
| 20260505010200 | 57 | 303 | 4.0 | 7.0 | 0.00 | 0.00 | 0.00 | 46 | 1012.3 |
| 20260505005656 | 58 | 357 | 5.0 | 7.0 | 0.00 | 0.00 | 0.00 | 39 | 1012.2 |
| 20260505005153 | 59 | 23 | 3.0 | 4.0 | 0.00 | 0.00 | 0.00 | 38 | 1011.8 |
| 20260505004650 | 60 | 340 | 5.0 | 6.0 | 0.00 | 0.00 | 0.00 | 36 | 1011.7 |
| 20260505004146 | 61 | 35 | 3.0 | 3.0 | 0.00 | 0.00 | 0.00 | 34 | 1011.0 |
| 20260505003644 | 62 | 341 | 4.0 | 8.0 | 0.00 | 0.00 | 0.00 | 33 | 1011.2 |
| 20260505003142 | 62 | 336 | 2.0 | 3.0 | 0.00 | 0.00 | 0.00 | 31 | 1011.1 |
| 20260505002637 | 62 | 89 | 2.0 | 2.0 | 0.00 | 0.00 | 0.00 | 31 | 1010.9 |
| 20260505002136 | 62 | 160 | 4.0 | 4.0 | 0.00 | 0.00 | 0.00 | 34 | 1011.1 |
| 20260505001632 | 63 | 333 | 3.0 | 6.0 | 0.00 | 0.00 | 0.00 | 31 | 1011.0 |
| 20260505001130 | 63 | 298 | 3.0 | 3.0 | 0.00 | 0.00 | 0.00 | 29 | 1010.7 |
| 20260505000627 | 64 | 341 | 0.0 | 1.0 | 0.00 | 0.00 | 0.00 | 29 | 1010.7 |
| 20260505000125 | 64 | 2 | 1.0 | 1.0 | 0.00 | 0.00 | 0.00 | 28 | 1010.7 |
| 20260504235621 | 64 | 356 | 1.0 | 1.0 | 0.00 | 0.00 | 0.00 | 28 | 1010.4 |
| 20260504235118 | 64 | 351 | 1.0 | 1.0 | 0.00 | 0.00 | 0.00 | 28 | 1010.4 |
| 20260504234615 | 64 | 359 | 0.0 | 0.0 | 0.00 | 0.00 | 0.00 | 28 | 1010.3 |
| 20260504234112 | 64 | 350 | 2.0 | 2.0 | 0.00 | 0.00 | 0.00 | 28 | 1009.8 |
| 20260504233607 | 64 | 2 | 1.0 | 1.0 | 0.00 | 0.00 | 0.00 | 32 | 1010.0 |
| 20260504233104 | 64 | 1 | 1.0 | 1.0 | 0.00 | 0.00 | 0.00 | 33 | 1010.0 |
| 20260504232601 | 64 | 344 | 1.0 | 1.0 | 0.00 | 0.00 | 0.00 | 31 | 1009.9 |
| 20260504232059 | 64 | 347 | 1.0 | 2.0 | 0.00 | 0.00 | 0.00 | 30 | 1010.0 |
| 20260504231555 | 64 | 20 | 2.0 | 2.0 | 0.00 | 0.00 | 0.00 | 31 | 1009.9 |
| 20260504231051 | 64 | 8 | 1.0 | 1.0 | 0.00 | 0.00 | 0.00 | 31 | 1009.9 |
| 20260504230547 | 64 | 14 | 0.0 | 1.0 | 0.00 | 0.00 | 0.00 | 32 | 1010.0 |
| 20260504230047 | 64 | 28 | 2.0 | 3.0 | 0.00 | 0.00 | 0.00 | 31 | 1010.0 |
| 20260504225543 | 63 | 307 | 0.0 | 0.0 | 0.00 | 0.00 | 0.00 | 30 | 1010.0 |
| 20260504225040 | 63 | 318 | 0.0 | 1.0 | 0.00 | 0.00 | 0.00 | 30 | 1009.9 |
| 20260504224537 | 63 | 332 | 1.0 | 2.0 | 0.00 | 0.00 | 0.00 | 31 | 1010.0 |
| 20260504224034 | 63 | 4 | 2.0 | 2.0 | 0.00 | 0.00 | 0.00 | 32 | 1010.1 |
| 20260504223531 | 63 | 31 | 1.0 | 3.0 | 0.00 | 0.00 | 0.00 | 34 | 1010.3 |
| 20260504223027 | 62 | 322 | 1.0 | 2.0 | 0.00 | 0.00 | 0.00 | 33 | 1010.5 |
| 20260504222523 | 61 | 290 | 2.0 | 3.0 | 0.00 | 0.00 | 0.00 | 35 | 1010.4 |
| 20260504222021 | 61 | 8 | 2.0 | 3.0 | 0.00 | 0.00 | 0.00 | 37 | 1010.4 |
| 20260504221518 | 62 | 8 | 3.0 | 3.0 | 0.00 | 0.00 | 0.00 | 38 | 1010.3 |
| 20260504221015 | 63 | 359 | 2.0 | 2.0 | 0.00 | 0.00 | 0.00 | 33 | 1010.5 |
| 20260504220511 | 63 | 354 | 1.0 | 2.0 | 0.00 | 0.00 | 0.00 | 32 | 1010.5 |
| 20260504220009 | 63 | 352 | 4.0 | 6.0 | 0.00 | 0.00 | 0.00 | 30 | 1010.6 |
| 20260504215505 | 64 | 330 | 4.0 | 6.0 | 0.00 | 0.00 | 0.00 | 30 | 1010.3 |
| 20260504215003 | 64 | 343 | 6.0 | 8.0 | 0.00 | 0.00 | 0.00 | 30 | 1010.3 |
| 20260504214458 | 64 | 343 | 4.0 | 6.0 | 0.00 | 0.00 | 0.00 | 30 | 1010.4 |
| 20260504213955 | 66 | 1 | 8.0 | 10.0 | 0.00 | 0.00 | 0.00 | 28 | 1010.0 |
| 20260504213451 | 67 | 334 | 3.0 | 4.0 | 0.00 | 0.00 | 0.00 | 22 | 1009.9 |
| 20260504212949 | 67 | 17 | 3.0 | 7.0 | 0.00 | 0.00 | 0.00 | 21 | 1009.8 |
| 20260504212444 | 69 | 2 | 6.0 | 9.0 | 0.00 | 0.00 | 0.00 | 20 | 1009.8 |
| 20260504211942 | 70 | 359 | 0.0 | 1.0 | 0.00 | 0.00 | 0.00 | 20 | 1009.5 |
| 20260504211438 | 70 | 347 | 0.0 | 1.0 | 0.00 | 0.00 | 0.00 | 18 | 1009.4 |
| 20260504210936 | 70 | 16 | 0.0 | 1.0 | 0.00 | 0.00 | 0.00 | 18 | 1009.3 |
| 20260504210433 | 70 | 14 | 2.0 | 3.0 | 0.00 | 0.00 | 0.00 | 18 | 1009.3 |
| 20260504205930 | 71 | 1 | 0.0 | 1.0 | 0.00 | 0.00 | 0.00 | 19 | 1009.3 |
| 20260504205427 | 72 | 39 | 3.0 | 4.0 | 0.00 | 0.00 | 0.00 | 17 | 1009.3 |
| 20260504204925 | 71 | 346 | 1.0 | 1.0 | 0.00 | 0.00 | 0.00 | 18 | 1009.2 |
| 20260504204423 | 71 | 3 | 1.0 | 1.0 | 0.00 | 0.00 | 0.00 | 18 | 1009.4 |
| 20260504203922 | 71 | 3 | 2.0 | 2.0 | 0.00 | 0.00 | 0.00 | 17 | 1009.5 |
| 20260504203420 | 72 | 1 | 1.0 | 2.0 | 0.00 | 0.00 | 0.00 | 18 | 1010.0 |
| 20260504202915 | 71 | 327 | 0.0 | 0.0 | 0.00 | 0.00 | 0.00 | 18 | 1009.8 |
| 20260504202412 | 71 | 356 | 2.0 | 3.0 | 0.00 | 0.00 | 0.00 | 18 | 1009.8 |
| 20260504201909 | 73 | 277 | 5.0 | 6.0 | 0.00 | 0.00 | 0.00 | 17 | 1010.1 |
| 20260504201406 | 72 | 347 | 3.0 | 4.0 | 0.00 | 0.00 | 0.00 | 16 | 1010.0 |
| 20260504200903 | 72 | 259 | 6.0 | 7.0 | 0.00 | 0.00 | 0.00 | 16 | 1010.1 |
| 20260504200400 | 72 | 305 | 2.0 | 3.0 | 0.00 | 0.00 | 0.00 | 17 | 1009.9 |
| 20260504195857 | 71 | 273 | 5.0 | 7.0 | 0.00 | 0.00 | 0.00 | 18 | 1010.0 |
| 20260504195352 | 70 | 290 | 4.0 | 4.0 | 0.00 | 0.00 | 0.00 | 19 | 1010.1 |
| 20260504194849 | 70 | 288 | 3.0 | 4.0 | 0.00 | 0.00 | 0.00 | 19 | 1010.4 |
| 20260504194345 | 69 | 262 | 7.0 | 11.0 | 0.00 | 0.00 | 0.00 | 21 | 1010.6 |
| 20260504193841 | 70 | 288 | 9.0 | 17.0 | 0.00 | 0.00 | 0.00 | 19 | 1010.7 |
| 20260504193338 | 71 | 207 | 2.0 | 2.0 | 0.00 | 0.00 | 0.00 | 18 | 1010.5 |
| 20260504192837 | 71 | 351 | 1.0 | 1.0 | 0.00 | 0.00 | 0.00 | 16 | 1010.6 |
| 20260504192335 | 73 | 345 | 1.0 | 2.0 | 0.00 | 0.00 | 0.00 | 13 | 1010.6 |
| 20260504191833 | 73 | 270 | 1.0 | 1.0 | 0.00 | 0.00 | 0.00 | 14 | 1010.5 |
| 20260504191330 | 74 | 319 | 4.0 | 4.0 | 0.00 | 0.00 | 0.00 | 13 | 1010.7 |
| 20260504190825 | 72 | 304 | 1.0 | 1.0 | 0.00 | 0.00 | 0.00 | 14 | 1010.5 |
| 20260504190322 | 70 | 315 | 0.0 | 0.0 | 0.00 | 0.00 | 0.00 | 17 | 1010.7 |
| 20260504185819 | 70 | 281 | 3.0 | 3.0 | 0.00 | 0.00 | 0.00 | 14 | 1010.9 |
| 20260504185316 | 71 | 284 | 3.0 | 4.0 | 0.00 | 0.00 | 0.00 | 15 | 1010.9 |
| 20260504184812 | 71 | 316 | 0.0 | 0.0 | 0.00 | 0.00 | 0.00 | 14 | 1011.0 |
| 20260504184308 | 72 | 321 | 2.0 | 4.0 | 0.00 | 0.00 | 0.00 | 14 | 1010.9 |
| 20260504183803 | 73 | 313 | 1.0 | 2.0 | 0.00 | 0.00 | 0.00 | 14 | 1011.2 |
| 20260504183300 | 73 | 331 | 2.0 | 2.0 | 0.00 | 0.00 | 0.00 | 14 | 1011.2 |
| 20260504182759 | 73 | 294 | 4.0 | 6.0 | 0.00 | 0.00 | 0.00 | 14 | 1011.3 |
| 20260504182255 | 73 | 291 | 3.0 | 3.0 | 0.00 | 0.00 | 0.00 | 14 | 1011.3 |
| 20260504181753 | 71 | 324 | 2.0 | 3.0 | 0.00 | 0.00 | 0.00 | 15 | 1011.8 |
| 20260504181250 | 69 | 311 | 3.0 | 3.0 | 0.00 | 0.00 | 0.00 | 15 | 1011.7 |
| 20260504180749 | 69 | 322 | 4.0 | 7.0 | 0.00 | 0.00 | 0.00 | 16 | 1011.7 |
| 20260504180247 | 71 | 338 | 4.0 | 6.0 | 0.00 | 0.00 | 0.00 | 16 | 1011.7 |
| 20260504175745 | 73 | 320 | 1.0 | 2.0 | 0.00 | 0.00 | 0.00 | 15 | 1011.7 |
| 20260504175241 | 72 | 348 | 3.0 | 4.0 | 0.00 | 0.00 | 0.00 | 15 | 1011.6 |
| 20260504174739 | 71 | 263 | 3.0 | 4.0 | 0.00 | 0.00 | 0.00 | 15 | 1011.8 |
| 20260504174237 | 71 | 6 | 8.0 | 9.0 | 0.00 | 0.00 | 0.00 | 14 | 1011.9 |
| 20260504173733 | 69 | 331 | 3.0 | 3.0 | 0.00 | 0.00 | 0.00 | 17 | 1012.1 |
| 20260504173230 | 69 | 311 | 6.0 | 8.0 | 0.00 | 0.00 | 0.00 | 16 | 1012.1 |
| 20260504172727 | 69 | 283 | 9.0 | 13.0 | 0.00 | 0.00 | 0.00 | 17 | 1012.4 |
| 20260504172223 | 69 | 297 | 7.0 | 9.0 | 0.00 | 0.00 | 0.00 | 17 | 1012.3 |
| 20260504171720 | 69 | 324 | 9.0 | 11.0 | 0.00 | 0.00 | 0.00 | 17 | 1012.4 |
| 20260504171217 | 69 | 296 | 4.0 | 9.0 | 0.00 | 0.00 | 0.00 | 20 | 1012.4 |
| 20260504170714 | 69 | 302 | 3.0 | 4.0 | 0.00 | 0.00 | 0.00 | 21 | 1012.4 |
| 20260504170211 | 69 | 266 | 7.0 | 9.0 | 0.00 | 0.00 | 0.00 | 20 | 1012.8 |
| 20260504160129 | 68 | 322 | 2.0 | 3.0 | 0.00 | 0.00 | 0.00 | 21 | 1012.9 |
| 20260504151057 | 64 | 333 | 0.0 | 0.0 | 0.00 | 0.00 | 0.00 | 28 | 1013.0 |
| 20260504150554 | 63 | 317 | 0.0 | 0.0 | 0.00 | 0.00 | 0.00 | 29 | 1012.9 |
| 20260504141020 | 56 | 319 | 0.0 | 0.0 | 0.00 | 0.00 | 0.00 | 35 | 1013.0 |
| 20260504140517 | 56 | 319 | 0.0 | 0.0 | 0.00 | 0.00 | 0.00 | 35 | 1013.1 |
| 20260504130441 | 50 | 314 | 0.0 | 1.0 | 0.00 | 0.00 | 0.00 | 38 | 1013.1 |